This is the latest recevied weather packets stored in our database for station/object KF7BKV-1. If no packets are shown the sender has not sent any weather packets the latest 1 day(s).
| Time | Temp. | Humidity | Pressure | Rain* | Wind** | Luminosity | Snow |
|---|---|---|---|---|---|---|---|
| 1778048223 | 15° C | 41% | 1013.4 hPa | 0 mm | 1.79 m/s, 299° | - | - |
| 1778048104 | 15° C | 41% | 1013.3 hPa | 0 mm | 2.24 m/s, 300° | - | - |
| 1778047923 | 15° C | 41% | 1013.3 hPa | 0 mm | 2.24 m/s, 300° | - | - |
| 1778047804 | 15° C | 41% | 1013.2 hPa | 0 mm | 2.68 m/s, 319° | - | - |
| 1778047623 | 15° C | 41% | 1013.2 hPa | 0 mm | 2.68 m/s, 319° | - | - |
| 1778047443 | 15.56° C | 40% | 1013 hPa | 0 mm | 3.58 m/s, 291° | - | - |
| 1778047263 | 15.56° C | 40% | 1013 hPa | 0 mm | 3.58 m/s, 291° | - | - |
| 1778046963 | 16.11° C | 38% | 1012.8 hPa | 0 mm | 3.58 m/s, 297° | - | - |
| 1778046904 | 16.11° C | 38% | 1013 hPa | 0 mm | 2.68 m/s, 341° | - | - |
| 1778046783 | 16.11° C | 38% | 1013 hPa | 0 mm | 2.68 m/s, 341° | - | - |
| 1778046604 | 16.11° C | 37% | 1013.1 hPa | 0 mm | 3.13 m/s, 326° | - | - |
| 1778046183 | 15.56° C | 38% | 1012.6 hPa | 0 mm | 1.79 m/s, 322° | - | - |
| 1778046123 | 15.56° C | 38% | 1012.6 hPa | 0 mm | 1.79 m/s, 322° | - | - |
| 1778046063 | 15.56° C | 38% | 1012.6 hPa | 0 mm | 1.79 m/s, 322° | - | - |
| 1778045943 | 15.56° C | 38% | 1012.9 hPa | 0 mm | 4.02 m/s, 337° | - | - |
| 1778045643 | 16.11° C | 38% | 1012.6 hPa | 0 mm | 1.34 m/s, 342° | - | - |
| 1778045583 | 16.11° C | 38% | 1012.6 hPa | 0 mm | 1.34 m/s, 342° | - | - |
| 1778045343 | 16.11° C | 37% | 1012.7 hPa | 0 mm | 2.24 m/s, 2° | - | - |
| 1778045223 | 16.11° C | 37% | 1012.7 hPa | 0 mm | 2.24 m/s, 2° | - | - |
| 1778044923 | 16.67° C | 36% | 1012.8 hPa | 0 mm | 1.79 m/s, 0° | - | - |
| 1778044623 | 16.67° C | 35% | 1012.7 hPa | 0 mm | 1.34 m/s, 6° | - | - |
| 1778044563 | 16.67° C | 35% | 1012.7 hPa | 0 mm | 1.34 m/s, 6° | - | - |
| 1778044383 | 17.22° C | 34% | 1012.5 hPa | 0 mm | 2.24 m/s, 5° | - | - |
| 1778044263 | 17.22° C | 34% | 1012.5 hPa | 0 mm | 2.24 m/s, 5° | - | - |
| 1778044204 | 17.22° C | 33% | 1012.3 hPa | 0 mm | 3.13 m/s, 341° | - | - |
* Rain latest hour (hover to see other rain measurements)
** Current wind speed in m/s (hover to see current wind gust speed)